DW9106 Madrid ES current weather conditions

sailwx.info

Wind from 080 at 0 knots gusting 5

Air temperature 17.2° C
Dewpoint 12.9° C

Last reported at 2014-Sep-17 02:52 UTC.
Time now 2014-Sep-17 03:35 UTC

Location: N 40°23' W 003°38'.
View on Google Maps.

See reports from other nearby stations

  
Tides and Currents Weather Stations Pressure Air Temp Water Temp Dewpoint Dewpoint Depression Visibility Wind Speed Wind Dir Waves Ship Positions
date/time (UTC)wind fromknots sea level pressurealtimeterstation pressurevisibilityair tempwater tempwave heightnotes
2014-Sep-17 02:52 080 0 gusting 5 17.2
2014-Sep-17 02:22 165 0 gusting 4 17.2
2014-Sep-17 02:07 150 17.2
2014-Sep-17 01:52 180 0 gusting 3 17.2
2014-Sep-17 01:22 201 17.2
2014-Sep-17 01:06 174 0 gusting 4 17.2
2014-Sep-17 00:51 190 1 gusting 5 17.8
2014-Sep-17 00:36 176 17.8
2014-Sep-17 00:21 254 17.8
2014-Sep-17 00:06 257 17.8
2014-Sep-16 23:51 254 18.3
2014-Sep-16 23:36 172 0 gusting 3 18.3
2014-Sep-16 23:21 208 18.3
2014-Sep-16 23:06 257 2 gusting 6 18.9
2014-Sep-16 22:51 288 2 gusting 8 18.9
2014-Sep-16 22:21 250 3 gusting 8 19.4
2014-Sep-16 22:06 170 0 gusting 4 19.4
2014-Sep-16 21:51 259 1 gusting 6 19.4
2014-Sep-16 21:36 155 0 gusting 7 20.0
2014-Sep-16 21:21 306 3 gusting 8 20.0
2014-Sep-16 21:06 124 3 gusting 8 20.0
2014-Sep-16 20:51 198 1 gusting 7 20.6
2014-Sep-16 20:36 213 1 gusting 10 21.1
2014-Sep-16 20:21 278 3 gusting 10 21.7
2014-Sep-16 20:06 207 1 gusting 7 22.2
2014-Sep-16 19:51 200 1 gusting 8 22.8
2014-Sep-16 19:36 231 4 gusting 11 22.8
2014-Sep-16 19:21 157 4 gusting 12 23.3
2014-Sep-16 19:06 259 4 gusting 10 23.3
2014-Sep-16 18:51 256 5 gusting 12 23.3
2014-Sep-16 18:36 194 6 gusting 18 23.9
2014-Sep-16 18:21 301 4 gusting 13 23.9
2014-Sep-16 18:06 340 5 gusting 11 23.9
2014-Sep-16 17:51 236 4 gusting 14 24.4
2014-Sep-16 17:36 215 4 gusting 10 24.4
2014-Sep-16 17:21 240 6 gusting 19 25.0
2014-Sep-16 17:06 249 3 gusting 14 25.0
2014-Sep-16 16:51 183 6 gusting 14 25.6
2014-Sep-16 16:36 210 5 gusting 13 25.6
2014-Sep-16 16:21 223 5 gusting 18 25.0
2014-Sep-16 16:06 069 7 gusting 16 25.0
2014-Sep-16 15:51 110 6 gusting 17 25.6
2014-Sep-16 15:36 203 6 gusting 17 25.6
2014-Sep-16 15:21 275 6 gusting 13 26.1
2014-Sep-16 15:06 180 2 gusting 6 26.7
2014-Sep-16 14:51 232 1 gusting 6 26.7
2014-Sep-16 14:36 144 3 gusting 7 26.7
2014-Sep-16 14:21 208 1 gusting 6 26.1
2014-Sep-16 14:06 222 3 gusting 11 25.6
2014-Sep-16 13:51 162 4 gusting 13 25.6
2014-Sep-16 13:21 215 5 gusting 9 25.6
2014-Sep-16 13:06 200 4 gusting 10 25.6
2014-Sep-16 12:51 171 1 gusting 17 25.6
2014-Sep-16 12:36 195 3 gusting 12 26.7
2014-Sep-16 12:21 237 5 gusting 11 27.2
2014-Sep-16 12:06 147 5 gusting 14 26.7
2014-Sep-16 11:51 320 2 gusting 9 26.7
2014-Sep-16 11:36 198 2 gusting 12 26.1
2014-Sep-16 11:21 193 4 gusting 11 26.1
2014-Sep-16 11:06 262 3 gusting 9 25.6
2014-Sep-16 10:50 128 5 gusting 11 25.0
2014-Sep-16 10:35 187 3 gusting 10 24.4
2014-Sep-16 10:20 223 2 gusting 6 24.4
2014-Sep-16 10:05 073 0 gusting 4 23.9
2014-Sep-16 09:50 140 2 gusting 7 23.9
2014-Sep-16 09:35 117 4 gusting 8 23.3
2014-Sep-16 09:20 133 1 gusting 7 22.8
2014-Sep-16 09:05 173 0 gusting 4 22.2
2014-Sep-16 08:50 187 1 gusting 6 21.1
2014-Sep-16 08:35 055 0 gusting 8 20.6
2014-Sep-16 08:20 181 3 gusting 7 20.0
2014-Sep-16 08:05 040 0 gusting 6 19.4
2014-Sep-16 07:50 142 2 gusting 6 18.9
2014-Sep-16 07:35 080 0 gusting 3 18.3
2014-Sep-16 07:20 048 0 gusting 3 17.8
2014-Sep-16 07:05 057 0 gusting 3 17.8
2014-Sep-16 06:50 059 17.8
2014-Sep-16 06:35 060 1 gusting 4 17.8
2014-Sep-16 06:20 063 0 gusting 3 17.2
2014-Sep-16 06:05 023 17.2
2014-Sep-16 05:49 035 0 gusting 4 17.2
2014-Sep-16 05:34 026 17.2
2014-Sep-16 05:19 042 17.2
2014-Sep-16 05:04 042 17.2
2014-Sep-16 04:34 012 16.7
2014-Sep-16 04:19 049 1 gusting 3 16.7
2014-Sep-16 03:49 041 16.7
2014-Sep-16 03:34 028 16.7
2014-Sep-16 03:19 042 17.2
2014-Sep-16 03:04 046 2 gusting 4 17.2
2014-Sep-16 02:49 049 17.2
2014-Sep-16 02:34 072 0 gusting 5 17.2
2014-Sep-16 02:19 102 17.2
2014-Sep-16 02:04 036 17.8
2014-Sep-16 01:49 050 0 gusting 4 17.8
2014-Sep-16 01:19 038 17.8
2014-Sep-16 01:04 036 2 gusting 4 17.8
2014-Sep-16 00:49 016 17.8
2014-Sep-16 00:34 022 17.8
2014-Sep-16 00:19 022 17.8
2014-Sep-16 00:04 030 18.3
2014-Sep-15 23:49 030 18.3
2014-Sep-15 23:34 030 18.3
2014-Sep-15 23:19 253 18.3
2014-Sep-15 23:04 253 18.9
2014-Sep-15 22:49 253 18.9
2014-Sep-15 22:34 253 19.4
2014-Sep-15 22:19 253 19.4
2014-Sep-15 22:04 253 19.4
2014-Sep-15 21:49 253 20.0
2014-Sep-15 21:34 253 20.6
2014-Sep-15 21:19 253 20.6
2014-Sep-15 21:04 253 21.1
2014-Sep-15 20:49 253 21.7
2014-Sep-15 20:34 253 21.7
2014-Sep-15 20:19 253 21.7
2014-Sep-15 20:04 253 21.7
2014-Sep-15 19:49 253 22.2
2014-Sep-15 19:34 253 22.2
2014-Sep-15 19:19 253 22.8
2014-Sep-15 19:04 253 22.8
2014-Sep-15 18:49 253 23.3
2014-Sep-15 18:34 267 23.3
2014-Sep-15 18:19 265 23.9
2014-Sep-15 18:04 161 24.4
2014-Sep-15 17:49 259 1 gusting 5 24.4
2014-Sep-15 17:34 260 2 gusting 6 25.0
2014-Sep-15 17:19 274 2 gusting 8 25.6
2014-Sep-15 17:04 214 0 gusting 5 25.6
2014-Sep-15 16:49 211 3 gusting 9 25.6
2014-Sep-15 16:34 176 0 gusting 9 25.6
2014-Sep-15 16:19 267 1 gusting 8 25.6
2014-Sep-15 16:04 278 4 gusting 9 26.1
2014-Sep-15 15:49 207 25.6
2014-Sep-15 15:34 268 1 gusting 6 25.6
2014-Sep-15 15:19 223 3 gusting 6 25.6
2014-Sep-15 15:03 198 3 gusting 6 25.6
2014-Sep-15 14:48 179 2 gusting 8 25.0
2014-Sep-15 14:33 173 2 gusting 8 25.0
2014-Sep-15 14:18 264 2 gusting 6 24.4
2014-Sep-15 14:03 165 3 gusting 10 24.4
2014-Sep-15 13:48 140 1 gusting 7 24.4
2014-Sep-15 13:33 225 3 gusting 9 24.4
2014-Sep-15 13:18 139 2 gusting 6 23.9
2014-Sep-15 13:03 240 1 gusting 8 23.9
2014-Sep-15 12:48 185 1 gusting 9 23.3
2014-Sep-15 12:33 188 3 gusting 11 23.3
2014-Sep-15 12:18 126 3 gusting 9 23.3
2014-Sep-15 12:03 271 3 gusting 7 23.3
2014-Sep-15 11:48 155 1 gusting 8 22.8
2014-Sep-15 11:33 171 2 gusting 9 23.3
2014-Sep-15 11:18 213 1 gusting 7 22.8
2014-Sep-15 11:03 159 1 gusting 7 22.2
2014-Sep-15 10:48 115 0 gusting 8 22.2
2014-Sep-15 10:33 144 2 gusting 8 21.7
2014-Sep-15 10:18 269 1 gusting 5 21.7
2014-Sep-15 10:03 280 1 gusting 7 21.1
2014-Sep-15 09:48 178 2 gusting 7 21.1
2014-Sep-15 09:33 141 0 gusting 7 20.6
2014-Sep-15 09:18 215 0 gusting 6 20.0
2014-Sep-15 09:03 236 1 gusting 6 20.0
2014-Sep-15 08:48 275 1 gusting 6 18.9
2014-Sep-15 08:33 173 0 gusting 7 18.3
2014-Sep-15 08:18 247 1 gusting 4 18.3
2014-Sep-15 08:02 244 0 gusting 3 17.8
2014-Sep-15 07:47 184 17.2
2014-Sep-15 07:32 134 0 gusting 3 17.2
2014-Sep-15 07:17 153 17.2
2014-Sep-15 07:02 159 16.7
2014-Sep-15 06:47 140 16.1
2014-Sep-15 06:32 056 15.6
2014-Sep-15 06:17 159 15.0
2014-Sep-15 06:02 159 15.0
2014-Sep-15 05:47 171 15.0
2014-Sep-15 05:32 171 15.0
2014-Sep-15 05:17 171 15.6
2014-Sep-15 05:02 171 15.6
2014-Sep-15 04:47 213 15.6
2014-Sep-15 04:32 272 16.1
2014-Sep-15 04:17 272 16.1
2014-Sep-15 04:02 272 15.6
2014-Sep-15 03:47 272 15.6
2014-Sep-15 03:32 272 16.1
2014-Sep-15 03:17 272 16.1
2014-Sep-15 03:02 272 16.1